Location: Gajan
(43.0218°N, 1.1244°E)
Time: 15:56:52
(UTC+00:00)

SL-4 R/B - Pass Details

Date: 22 April 2021
Orbit: 427 x 663 km, 51.6° (Epoch: 12 May)

Event Time Altitude Azimuth Distance (km) Brightness Sun altitude
Rises 23:03:22 0° 288° (WNW) 2,880 6.1 -33.3°
Reaches altitude 10° 23:05:54 10° 300° (WNW) 2,008 5.3 -33.4°
Enters shadow 23:09:12 27° 344° (NNW) 1,242 4.3 -33.5°
